Погода в Лесогорской

Россия / Краснодарский край     44°32′45″N   39°32′29″E
темп.,
°C
ветер,
м/с
пор.,
м/с
влажн.,
%
обл.,
%
осадки,
мм/ч
давл.,
гПа
погр.,
м
11 мая, вт
вт1100:00+8юз61266100 0.0 1019909
03:00+8юз6126891 0.0 10181139
06:00+8ююз71572100 0.0 10161441
09:00+8ююз8178387 0.5 10161526
12:00+9ююз8167576 0.5 10151657
15:00+13юз81553100 0.6 10151852
18:00+11ююз61352100 0.0 10151658
21:00+9ююз3862100 0.0 1016658
12 мая, ср
ср1200:00+7ю237495 0.0 1016177
03:00+4ююв228177 0.0 101638
06:00+7ююв12608 0.0 101776
09:00+14в123914 0.0 1016685
12:00+19св233068 0.0 10141399
15:00+20св44374 0.0 10131544
18:00+17св376464 0.0 1012419
21:00+11юв11935 0.0 101210
13 мая, чт
чт1300:00+9ю11950 0.0 101211
03:00+9ю11850 0.0 101210
06:00+9ююв11710 0.0 101210
09:00+20всв12425 0.0 1012328
12:00+25св333655 0.0 1011978
15:00+28всв45335 0.0 10101426
18:00+23всв3860100 0.0 1010339
21:00+16ююв1190100 0.0 101011
14 мая, пт
пт1400:00+15ю22755 0.0 101012
03:00+15ю22425 0.0 101012
06:00+15ю215131 0.0 101013
09:00+25в123710 0.0 1010235
12:00+30ссв33270 0.0 10101026
15:00+30ссв33340 0.0 1009894
18:00+26ссв12700 0.0 100954
21:00+19ююз11890 0.0 101011
15 мая, сб
сб1500:00+17юз22880 0.0 101016
03:00+14сз12905 0.0 101235
06:00+15ю118948 0.0 101418
09:00+23з13565 0.0 1014718
12:00+26з4545100 0.0 10131527
15:00+25зсз2449100 0.5 10131219
18:00+22всв247382 0.1 1014354
21:00+17в1194100 0.1 101411